Voltar ao catálogo

STARLINK-31542

AtivoComunicaçõesVLEO
NORAD 59194·PAYLOAD·🇺🇸 United States

Lançado Mar 10, 2024 de Cape Canaveral Space Force Station

Loading…

Próximas Passagens (próximas 24 horas)

TLE

AtualizadoSource: CelesTrak SupGP

Época: Sep 14, 2026, 22:14 UTC

1 59194C 24045S   26257.92687500  .00021144  00000+0  76601-3 0  2573
2 59194  43.0028 103.4458 0001394 274.6911 215.2991 15.27561225    15

Acompanhe STARLINK-31542 em tempo real com AllMySat

Download on the App Store